Temp
22 22 22 20 20 19 21 23 23 23 24 24 24 24 22 22 21 20 20 21 22 21 20 19 19 19 18 19 19 19 19 19 19 19 19 19 19 19 19 19 19 19 19 19 18 18 17 18 18
22 22 22 22 19 20 21 22 23 23 24 24 24 24 23 20 20 20 19 21 22 21 20 19 20 19 18 19 19 19 19 19 19 19 19 20 20 19 19 19 19 18 17 17 18 18 18 18 18
23 23 23 19 19 21 22 23 22 24 24 25 24 24 22 20 19 20 20 21 21 21 20 20 20 20 20 19 19 19 19 19 19 19 20 20 20 20 19 19 19 19 18 18 19 19 19 18 18
25 23 22 21 23 24 23 23 23 24 25 25 24 22 21 20 20 20 21 21 21 21 20 20 20 20 20 20 19 19 19 19 19 20 20 20 20 20 20 19 19 18 18 17 18 19 18 18 18
25 23 21 23 23 24 23 23 23 24 25 24 24 20 19 20 21 22 22 21 21 21 21 20 20 20 20 20 20 20 20 20 20 20 20 20 20 20 20 19 19 19 19 17 17 18 18 18 17
24 23 22 22 24 25 24 24 23 24 24 23 22 20 19 20 21 22 22 22 21 21 21 21 20 20 20 20 20 20 20 20 20 20 20 20 20 19 19 19 19 19 19 19 18 18 18 18 17
23 21 23 24 25 25 25 24 23 24 24 23 23 20 19 20 21 21 21 21 21 21 21 21 21 20 20 20 20 19 19 19 20 20 19 19 19 19 19 19 19 19 19 18 18 18 18 18 18
24 22 25 25 25 25 26 24 25 25 24 24 24 20 19 20 20 20 20 21 21 21 21 21 21 21 20 20 20 20 19 19 19 19 19 19 19 19 18 18 18 18 18 18 18 18 17 17 18
25 22 22 25 25 26 25 25 25 26 25 24 24 24 23 21 20 20 20 20 21 21 21 21 21 21 21 21 20 20 19 19 19 19 19 18 18 17 18 18 17 17 17 17 17 18 18 17 17
24 21 24 26 26 25 26 26 26 25 24 24 23 23 23 22 21 21 21 21 21 22 22 21 21 21 21 21 20 20 20 19 19 19 19 18 18 18 17 17 17 17 17 17 17 17 17 17 17
25 24 26 29 29 28 26 26 26 24 23 24 23 21 22 22 21 22 22 22 22 22 22 22 21 21 21 21 21 20 20 20 20 19 19 18 18 17 17 17 17 17 17 17 17 17 17 17 17
26 27 28 31 30 28 26 27 24 25 26 27 25 24 23 22 22 22 22 23 22 22 22 22 21 21 20 20 21 21 21 21 20 20 19 19 19 18 17 17 17 17 17 18 18 17 17 17 17
26 28 29 30 30 29 28 27 26 25 27 27 25 23 23 23 22 22 22 22 22 22 22 22 21 21 20 20 20 21 21 20 20 19 20 20 18 18 18 17 17 18 17 18 17 17 17 17 17
28 28 28 30 30 29 27 27 28 25 26 26 24 23 22 23 23 22 22 22 22 21 21 20 20 20 20 20 21 21 21 20 20 20 20 19 19 18 18 17 18 18 18 17 17 17 17 17 17
28 26 27 30 29 29 28 26 27 26 25 24 23 22 23 23 22 22 23 23 21 22 21 21 21 20 20 21 20 21 20 20 20 20 19 19 19 19 18 18 18 18 18 17 17 17 17 17 17
25 25 25 28 28 27 28 25 25 24 24 23 23 22 22 22 23 23 23 22 22 21 20 21 22 21 21 21 20 20 20 20 20 20 19 19 19 19 19 18 18 18 18 18 18 17 17 17 17
22 24 26 25 27 27 27 25 25 24 24 23 23 24 23 22 23 24 23 22 22 23 22 22 23 23 22 21 20 20 20 20 20 20 20 20 20 19 19 19 19 19 18 18 18 18 18 18 17
24 24 24 25 26 24 24 25 22 24 24 23 23 23 24 23 24 24 23 23 22 23 22 23 23 22 22 21 19 19 19 19 18 20 19 19 20 19 19 19 19 19 18 18 18 18 18 18 17
25 24 24 25 26 25 22 22 21 23 24 23 23 23 23 24 24 24 23 23 23 22 22 22 23 23 21 21 20 20 20 20 20 20 20 19 19 19 19 19 19 19 18 19 18 18 18 18 17
24 25 24 25 25 24 23 22 22 23 22 23 23 23 24 24 24 23 23 23 24 24 22 22 22 22 21 21 21 20 19 19 19 19 19 20 20 19 19 20 19 19 19 18 18 18 18 18 18
24 25 24 26 25 24 24 23 23 24 23 24 23 23 24 24 24 23 23 24 23 24 23 22 22 21 20 20 20 19 18 16 18 19 20 19 19 19 19 20 20 19 19 19 18 18 18 18 18
24 23 25 25 24 23 23 22 21 21 20 23 24 24 25 26 26 25 24 23 24 23 23 22 22 21 20 20 19 19 18 18 18 19 19 20 19 20 20 19 19 19 19 19 19 18 18 18 18
25 26 25 25 22 22 24 22 20 19 21 21 23 25 25 26 26 26 26 25 24 23 23 23 22 21 20 20 19 19 19 20 19 19 19 20 20 19 19 19 19 19 19 19 19 18 18 18 18
26 26 22 18 19 22 22 21 20 20 21 22 22 24 26 26 26 26 25 25 24 23 23 22 22 21 20 19 20 20 19 19 20 20 20 19 19 19 18 18 19 19 19 19 19 18 19 18 18
23 21 21 23 20 21 20 20 21 22 21 22 23 24 25 25 25 26 25 25 25 24 23 22 22 21 20 20 20 20 19 20 20 20 20 19 18 18 17 17 17 18 18 18 18 18 19 19 18
25 22 20 24 21 21 20 21 23 22 23 23 24 24 24 24 25 25 23 24 25 24 24 23 22 21 21 20 20 19 20 20 20 19 19 19 18 17 17 16 16 16 17 18 18 18 18 18 18
25 23 21 17 17 20 19 20 21 20 20 22 23 24 23 23 24 23 23 24 24 23 23 22 22 21 20 20 20 20 20 19 19 18 18 19 18 18 17 17 16 16 16 17 17 17 17 18 19
25 22 23 18 22 23 20 19 20 23 22 22 21 22 23 23 24 24 23 23 22 23 22 21 21 21 21 20 20 19 19 18 18 18 18 18 18 18 17 17 16 16 16 16 16 16 18 19 18
24 22 17 17 17 19 20 20 19 21 22 21 22 23 23 24 24 23 22 23 22 22 21 21 21 20 20 20 19 19 18 18 18 17 17 17 17 18 18 17 16 15 15 16 16 17 18 18 18
24 23 19 20 21 16 18 21 22 21 21 23 23 24 24 24 23 21 20 20 21 22 22 21 21 20 20 20 19 19 18 18 18 18 18 18 18 18 18 17 17 17 16 16 16 17 17 18 17
Height
1509 1508 1506 1507 1516 1517 1529 1520 1509 1510 1509 1509 1510 1513 1515 1516 1519 1530 1519 1524 1530 1533 1537 1541 1544 1547 1550 1551 1553 1554 1556 1557 1559 1561 1562 1563 1564 1565 1565 1566 1567 1568 1568 1569 1570 1571 1572 1573 1573
1508 1508 1507 1507 1524 1538 1531 1513 1514 1510 1510 1511 1513 1513 1515 1518 1517 1517 1520 1526 1532 1535 1538 1542 1546 1549 1551 1553 1554 1556 1558 1560 1561 1562 1564 1565 1566 1566 1567 1568 1569 1570 1572 1572 1572 1572 1573 1574 1576
1510 1509 1508 1512 1525 1535 1529 1513 1513 1511 1511 1511 1512 1513 1516 1517 1517 1518 1522 1526 1533 1537 1541 1544 1547 1550 1552 1554 1556 1558 1560 1562 1563 1565 1566 1566 1567 1568 1569 1570 1571 1572 1573 1574 1574 1574 1575 1576 1578
1511 1510 1510 1520 1522 1516 1516 1512 1511 1511 1512 1512 1513 1517 1519 1519 1519 1521 1524 1529 1534 1538 1543 1546 1549 1551 1553 1555 1558 1559 1561 1563 1565 1567 1568 1568 1569 1569 1570 1571 1572 1574 1575 1576 1576 1577 1578 1579 1580
1512 1511 1519 1523 1520 1514 1511 1511 1512 1512 1513 1514 1514 1520 1521 1523 1523 1524 1527 1532 1536 1539 1543 1547 1550 1553 1555 1557 1559 1561 1563 1564 1566 1567 1569 1570 1570 1571 1571 1572 1573 1574 1575 1577 1578 1579 1580 1581 1582
1515 1516 1528 1533 1524 1514 1511 1511 1512 1512 1514 1516 1517 1520 1524 1524 1525 1527 1531 1534 1539 1542 1544 1547 1550 1553 1556 1558 1560 1562 1564 1565 1567 1568 1569 1570 1571 1571 1572 1573 1574 1575 1576 1577 1578 1579 1580 1582 1583
1515 1520 1528 1523 1521 1517 1513 1512 1513 1512 1514 1516 1516 1521 1525 1525 1527 1529 1533 1537 1541 1544 1546 1548 1550 1553 1556 1559 1561 1562 1564 1566 1567 1568 1569 1570 1571 1572 1573 1574 1575 1576 1576 1577 1578 1579 1580 1582 1583
1515 1516 1522 1521 1522 1520 1510 1512 1511 1511 1515 1515 1517 1520 1525 1526 1529 1532 1535 1539 1542 1545 1547 1549 1551 1553 1555 1558 1560 1561 1563 1565 1567 1567 1568 1569 1570 1572 1573 1574 1575 1576 1576 1577 1577 1579 1580 1581 1583
1516 1525 1530 1519 1519 1510 1508 1510 1512 1512 1514 1516 1518 1518 1519 1524 1529 1533 1537 1540 1543 1545 1547 1549 1551 1553 1555 1557 1559 1561 1562 1564 1565 1566 1567 1569 1569 1570 1572 1572 1574 1575 1575 1576 1577 1578 1579 1581 1582
1515 1525 1516 1503 1502 1502 1503 1506 1510 1514 1514 1517 1517 1518 1520 1523 1528 1532 1534 1537 1540 1543 1545 1547 1549 1552 1554 1556 1558 1560 1561 1562 1563 1565 1566 1567 1568 1569 1570 1571 1571 1572 1573 1574 1575 1576 1578 1579 1582
1512 1517 1506 1498 1498 1499 1502 1508 1512 1513 1517 1513 1513 1516 1521 1524 1528 1531 1533 1536 1538 1542 1544 1546 1548 1551 1553 1554 1556 1558 1560 1561 1561 1563 1564 1565 1566 1568 1568 1569 1570 1570 1571 1571 1572 1574 1575 1577 1579
1514 1504 1502 1497 1499 1502 1503 1507 1512 1512 1510 1510 1514 1515 1519 1522 1526 1529 1532 1535 1538 1540 1542 1545 1547 1550 1552 1554 1554 1556 1558 1559 1559 1561 1562 1563 1564 1565 1566 1566 1567 1568 1568 1568 1570 1571 1573 1574 1576
1508 1501 1498 1501 1498 1500 1502 1502 1508 1512 1509 1511 1513 1517 1521 1525 1527 1530 1532 1535 1537 1538 1541 1543 1546 1548 1550 1552 1554 1556 1557 1558 1558 1559 1560 1561 1563 1564 1565 1565 1565 1565 1566 1567 1568 1569 1570 1571 1573
1506 1502 1498 1496 1500 1499 1501 1505 1507 1511 1510 1512 1514 1517 1521 1522 1526 1529 1530 1530 1534 1538 1540 1542 1545 1547 1549 1551 1552 1554 1556 1557 1557 1558 1559 1560 1561 1562 1562 1563 1563 1564 1564 1565 1566 1567 1567 1569 1570
1505 1505 1499 1495 1496 1498 1500 1507 1506 1507 1510 1512 1514 1517 1519 1521 1524 1525 1526 1527 1532 1534 1538 1543 1546 1544 1546 1549 1551 1552 1554 1556 1556 1556 1557 1557 1558 1559 1560 1561 1562 1562 1562 1563 1564 1565 1565 1566 1567
1509 1510 1521 1501 1499 1499 1499 1517 1504 1507 1507 1512 1515 1518 1520 1522 1521 1523 1523 1527 1529 1530 1536 1532 1541 1541 1543 1546 1549 1550 1551 1553 1554 1554 1554 1555 1556 1557 1558 1558 1559 1560 1560 1560 1562 1563 1563 1564 1565
1521 1531 1521 1512 1502 1503 1500 1512 1504 1508 1510 1512 1515 1517 1518 1521 1522 1521 1524 1526 1528 1529 1532 1535 1536 1538 1540 1543 1546 1548 1550 1551 1552 1551 1552 1552 1553 1554 1555 1556 1556 1557 1557 1558 1559 1560 1561 1562 1562
1534 1531 1523 1522 1505 1503 1507 1508 1509 1510 1512 1514 1517 1517 1517 1517 1517 1522 1523 1525 1527 1529 1531 1533 1535 1536 1539 1541 1544 1547 1549 1550 1549 1548 1549 1550 1550 1550 1551 1552 1553 1553 1553 1555 1556 1557 1558 1558 1559
1520 1525 1527 1512 1505 1508 1516 1513 1513 1510 1513 1514 1516 1517 1517 1515 1518 1521 1522 1523 1526 1528 1529 1533 1533 1535 1538 1540 1542 1545 1547 1548 1549 1549 1548 1548 1547 1546 1547 1548 1549 1550 1550 1552 1553 1554 1554 1555 1555
1518 1522 1524 1512 1507 1511 1517 1518 1513 1512 1512 1512 1514 1514 1516 1516 1517 1519 1520 1522 1523 1526 1528 1532 1533 1535 1537 1539 1543 1546 1546 1548 1546 1545 1545 1545 1544 1543 1542 1543 1544 1545 1546 1547 1549 1550 1551 1551 1553
1517 1521 1520 1517 1511 1512 1517 1525 1519 1512 1512 1512 1513 1513 1514 1514 1514 1516 1517 1518 1522 1525 1528 1529 1530 1532 1536 1541 1543 1544 1545 1545 1533 1537 1539 1540 1539 1539 1537 1537 1538 1539 1540 1542 1544 1546 1547 1548 1550
1522 1509 1508 1511 1521 1538 1518 1548 1526 1516 1513 1510 1511 1511 1512 1511 1512 1514 1516 1517 1519 1524 1527 1527 1528 1530 1535 1539 1543 1545 1540 1534 1534 1534 1536 1536 1533 1530 1529 1530 1531 1532 1534 1536 1538 1540 1542 1544 1545
1512 1502 1507 1508 1524 1525 1526 1540 1527 1520 1517 1511 1509 1508 1509 1510 1511 1512 1514 1515 1518 1522 1525 1527 1529 1532 1537 1539 1540 1540 1536 1533 1535 1536 1535 1530 1526 1522 1520 1520 1521 1523 1526 1530 1532 1534 1536 1539 1541
1499 1505 1515 1527 1534 1549 1534 1539 1533 1522 1511 1507 1506 1507 1507 1509 1511 1512 1513 1514 1516 1520 1523 1526 1530 1531 1534 1537 1537 1537 1538 1538 1537 1536 1532 1524 1517 1512 1509 1510 1512 1516 1519 1523 1524 1528 1530 1533 1535
1503 1521 1551 1549 1557 1556 1536 1542 1522 1502 1500 1498 1501 1503 1505 1510 1511 1512 1514 1514 1515 1518 1520 1524 1527 1531 1532 1534 1535 1535 1535 1536 1535 1532 1526 1519 1512 1507 1502 1501 1501 1507 1512 1517 1519 1522 1525 1527 1528
1505 1515 1545 1552 1563 1553 1537 1542 1512 1496 1496 1500 1501 1503 1507 1509 1512 1514 1517 1516 1514 1517 1518 1522 1525 1529 1530 1531 1531 1532 1533 1532 1530 1527 1522 1517 1512 1507 1501 1498 1498 1502 1508 1512 1515 1517 1519 1522 1523
1505 1519 1512 1546 1554 1554 1545 1525 1504 1498 1497 1499 1499 1502 1506 1510 1512 1515 1515 1513 1515 1518 1520 1523 1525 1526 1527 1528 1531 1531 1531 1530 1527 1525 1522 1517 1513 1509 1505 1500 1501 1504 1506 1508 1509 1512 1516 1517 1518
1494 1499 1524 1537 1553 1555 1550 1543 1530 1500 1495 1495 1499 1501 1507 1511 1510 1511 1513 1515 1516 1518 1520 1522 1524 1526 1527 1529 1529 1529 1529 1528 1526 1522 1519 1517 1513 1510 1508 1506 1504 1503 1503 1504 1505 1509 1511 1511 1513
1502 1509 1522 1531 1543 1559 1561 1542 1498 1494 1490 1492 1497 1501 1505 1505 1507 1512 1518 1518 1520 1521 1522 1524 1525 1526 1528 1529 1531 1530 1529 1526 1524 1523 1520 1518 1514 1511 1509 1507 1505 1503 1502 1503 1504 1506 1506 1507 1508
1492 1500 1509 1531 1539 1550 1546 1530 1487 1487 1489 1492 1494 1497 1501 1505 1513 1522 1527 1529 1529 1520 1523 1525 1527 1528 1528 1530 1530 1530 1529 1528 1526 1524 1522 1520 1517 1512 1509 1507 1505 1505 1504 1504 1503 1504 1505 1504 1505
Wind_Speed
6 6 7 3 4 5 2 2 1 3 2 2 9 4 5 3 3 3 13 33 32 31 28 26 24 20 17 19 18 21 22 23 22 19 16 16 15 14 13 13 14 14 14 14 14 15 16 15 17
8 9 3 2 5 4 4 2 2 2 3 10 9 7 3 2 1 8 30 33 32 30 29 27 24 22 18 20 20 21 22 22 21 18 16 15 14 13 13 12 13 13 14 13 12 13 13 15 16
7 8 2 4 3 2 2 1 3 2 6 4 3 6 3 1 3 28 32 35 33 30 28 27 24 22 20 19 19 21 21 21 19 16 15 14 12 11 11 11 12 12 12 11 11 11 12 13 16
10 5 3 4 2 2 4 2 3 1 2 1 7 5 3 4 22 21 32 35 33 30 28 27 24 21 20 20 19 20 20 20 18 15 13 12 12 12 12 11 10 11 11 9 8 10 11 14 14
10 4 4 4 5 3 1 1 4 1 2 3 4 3 8 7 13 22 29 33 32 30 29 26 23 20 19 18 18 18 19 18 16 13 12 12 12 12 11 10 9 9 10 11 10 10 11 12 11
3 2 4 3 3 4 2 3 0 1 5 6 11 9 4 2 14 21 25 30 29 28 28 26 23 20 17 16 16 16 16 15 14 13 12 11 11 11 9 8 7 7 8 9 9 10 11 12 11
2 3 2 3 3 2 2 4 2 3 5 3 16 4 3 11 17 22 26 27 27 27 26 25 23 20 16 15 15 15 15 14 13 12 11 10 10 10 9 7 6 6 9 10 10 10 10 11 12
2 2 0 4 2 4 6 10 5 7 1 15 9 6 6 18 20 21 25 26 26 27 26 25 24 21 19 17 17 16 15 14 12 11 10 10 10 9 9 9 8 6 9 12 13 12 13 12 12
2 3 2 4 5 5 12 6 9 5 5 5 9 2 10 24 23 21 25 25 25 26 25 26 25 23 20 18 18 17 16 15 13 13 12 11 10 10 9 7 10 7 9 11 13 14 14 14 15
2 2 6 7 6 6 15 11 17 4 7 1 5 6 23 27 25 23 27 28 27 26 25 25 25 25 22 20 18 17 16 16 15 14 13 12 11 10 10 10 12 14 13 13 13 14 15 17 16
3 4 4 8 12 18 15 10 14 13 3 10 15 23 30 27 27 24 24 27 26 24 24 25 27 26 24 22 19 18 16 15 15 15 14 13 10 12 13 12 9 7 10 9 14 14 15 16 16
3 12 7 6 5 11 10 12 9 20 5 14 15 21 31 29 29 27 24 24 24 24 22 24 25 24 24 22 19 17 15 15 15 15 15 15 13 12 13 11 14 15 11 10 11 13 15 16 16
3 5 17 13 8 10 10 11 7 12 3 15 20 22 30 28 27 26 24 24 24 23 22 20 21 24 24 23 20 18 16 14 11 13 14 13 11 11 8 11 9 10 11 9 10 14 14 15 15
9 14 19 8 8 8 9 3 8 10 15 22 23 26 25 28 29 28 29 29 26 25 26 26 23 23 23 24 20 18 18 13 11 10 10 11 11 10 11 9 11 12 11 10 11 9 11 13 15
9 6 8 4 7 7 9 3 5 14 25 27 25 26 26 26 28 30 28 30 30 29 21 18 20 23 23 23 22 18 20 16 15 13 12 11 11 12 11 10 11 11 10 12 12 13 12 12 17
5 5 5 5 5 4 5 7 4 24 30 28 28 24 22 27 27 27 28 31 31 32 25 10 18 22 23 22 23 21 20 20 18 15 15 14 11 11 13 13 10 9 10 11 12 12 13 14 16
7 2 4 9 8 4 3 3 1 20 24 22 27 29 26 22 25 24 23 27 27 28 26 23 18 13 18 22 22 22 21 22 23 18 18 15 12 13 13 15 12 13 10 13 12 11 13 12 12
4 4 5 4 7 6 2 1 6 10 18 18 22 27 28 23 25 23 20 24 25 23 25 25 22 26 17 22 26 24 24 23 23 15 20 20 17 15 16 15 14 12 13 14 16 16 12 12 14
2 3 5 5 3 4 3 4 5 3 14 16 22 25 28 21 19 16 17 20 23 23 25 20 12 20 24 21 26 25 25 25 23 18 16 19 19 19 19 18 16 15 17 14 13 14 17 17 12
4 1 6 4 4 4 1 5 4 3 3 15 20 25 29 29 22 22 22 20 20 11 20 28 27 18 23 18 25 23 25 23 24 24 23 21 21 21 23 23 22 19 18 18 16 17 17 17 13
2 3 4 5 2 4 4 4 4 1 1 9 12 19 22 21 23 24 28 27 26 15 13 16 15 17 13 17 20 25 26 16 15 20 16 23 22 26 26 26 25 24 23 21 19 18 19 19 16
6 7 5 2 4 4 2 3 5 4 6 4 9 12 26 25 19 17 18 23 28 21 12 7 10 16 10 18 19 13 16 14 11 20 27 26 27 30 31 29 29 29 26 25 22 20 20 21 22
8 5 3 2 3 3 2 3 7 3 6 5 7 11 12 13 14 9 10 12 19 17 18 9 10 14 16 16 12 13 15 11 16 21 28 30 33 33 33 33 31 31 30 28 25 23 23 23 23
4 4 8 6 2 2 2 4 6 6 7 4 5 10 13 13 8 2 4 4 5 12 17 22 16 11 14 7 9 6 6 7 9 10 19 22 22 21 24 32 34 33 29 28 28 25 22 22 22
6 6 2 2 4 5 1 2 10 3 6 7 9 8 18 14 9 2 2 3 4 4 10 15 21 12 6 5 3 4 4 4 9 17 22 24 24 22 18 18 24 28 29 24 21 24 23 23 23
4 7 6 5 3 4 1 5 5 3 7 5 5 5 16 15 8 4 6 9 9 10 10 9 10 7 2 0 3 3 2 12 17 17 19 21 23 24 18 11 7 14 20 22 20 20 24 24 24
3 3 4 8 4 3 3 7 7 7 9 7 10 17 21 17 12 11 11 11 13 12 11 9 9 5 1 2 2 2 6 10 13 14 14 16 17 19 22 17 8 10 16 20 20 22 17 17 19
4 6 4 4 4 3 5 6 6 4 8 7 7 19 23 18 16 14 12 11 12 11 10 10 8 7 6 5 1 0 5 10 13 14 15 14 15 16 16 16 14 9 12 13 18 16 11 11 13
1 2 7 6 4 5 2 6 7 7 8 10 9 21 25 22 19 15 12 13 11 10 9 7 8 7 5 3 4 5 7 11 11 11 13 15 15 16 15 13 13 10 5 10 12 17 13 14 15
3 5 5 5 4 1 3 6 1 5 6 13 14 22 25 22 15 10 10 6 5 10 8 7 7 6 4 2 4 7 7 9 10 11 12 14 15 17 17 13 10 9 6 10 10 9 15 11 12
Wind_Direction
27 6 335 349 52 58 39 325 310 335 336 68 151 158 164 108 169 207 153 161 162 157 158 157 157 152 146 146 143 144 145 143 142 139 134 130 127 125 121 125 127 127 127 124 125 129 126 130 127
31 2 318 320 75 46 297 242 264 270 94 100 112 115 78 95 113 150 152 158 163 160 159 158 158 154 149 150 148 147 152 151 149 146 141 137 134 129 127 127 128 129 128 133 136 132 132 132 129
12 348 19 77 94 102 270 340 335 78 122 28 94 59 40 108 175 149 155 157 163 162 160 159 159 158 153 151 153 154 152 155 156 154 150 147 143 139 137 137 135 135 139 141 141 135 135 137 136
356 11 53 82 116 177 191 284 227 270 270 139 124 62 63 333 141 151 157 161 164 164 162 160 160 158 153 152 153 158 160 161 164 161 160 156 152 147 144 143 146 146 144 142 143 143 144 142 142
10 12 30 21 349 328 299 234 166 169 33 72 96 55 108 102 144 154 160 165 169 167 166 164 162 161 158 157 157 160 164 168 169 169 170 167 162 157 148 148 153 157 158 159 162 154 154 162 160
36 33 30 344 311 325 312 257 22 5 97 123 107 109 142 156 165 159 167 169 173 173 172 171 168 167 163 166 170 170 169 173 176 180 178 179 176 171 167 161 163 173 175 172 173 174 174 177 177
148 105 183 288 302 305 238 184 276 145 130 134 138 95 128 154 162 162 167 173 177 181 183 183 183 185 185 181 184 184 182 184 187 189 193 193 194 190 187 187 195 199 201 201 197 186 188 195 195
223 85 159 226 203 267 163 168 214 178 151 150 151 154 171 167 166 166 171 175 182 188 194 197 199 203 204 201 196 200 197 197 201 206 209 212 213 213 207 207 214 227 231 215 212 207 205 205 198
188 76 242 230 156 233 164 174 164 205 146 156 159 183 180 166 168 168 176 180 187 194 200 205 208 210 212 211 208 208 212 215 217 222 223 226 228 229 232 238 248 259 256 232 225 219 216 212 211
144 116 223 210 203 196 178 176 152 157 190 154 155 148 165 167 171 169 177 183 191 196 201 205 209 211 211 213 216 219 224 227 231 231 233 237 241 252 245 245 250 260 267 242 235 230 226 221 219
205 218 249 242 202 197 172 180 160 146 270 214 177 158 167 174 177 177 183 188 190 196 203 208 211 211 211 214 220 228 233 236 239 238 236 239 239 244 250 251 248 276 268 259 241 243 235 228 226
266 247 241 274 186 171 161 161 139 168 220 209 202 176 173 181 183 187 188 193 197 201 204 213 215 217 218 222 224 230 231 237 241 238 237 238 234 237 248 257 260 268 272 252 245 242 238 240 234
178 311 328 308 164 189 174 178 152 195 169 174 179 179 183 188 193 194 201 203 207 211 211 215 220 221 222 226 230 232 231 235 245 239 237 237 233 238 255 258 264 252 255 249 256 252 245 247 234
294 300 308 288 181 174 168 142 158 175 167 173 184 184 195 196 203 205 210 212 215 219 220 221 225 226 227 230 232 234 227 229 233 229 231 239 246 245 250 262 247 247 254 258 252 260 245 243 237
293 327 334 247 178 188 148 94 214 163 169 173 184 191 199 208 210 216 222 225 220 221 222 225 239 229 227 232 236 232 226 232 235 237 239 250 254 253 253 256 255 252 242 247 250 254 252 247 237
19 44 347 347 1 345 159 259 276 163 167 174 179 180 200 211 221 226 230 233 233 232 225 232 256 240 229 230 234 232 228 235 242 246 250 255 259 258 251 251 257 257 246 247 252 255 251 248 246
15 327 1 321 34 325 93 224 336 166 169 176 188 192 202 209 220 228 236 239 239 237 232 230 241 241 235 229 229 234 234 241 246 245 251 249 263 257 260 259 257 251 241 255 253 252 254 256 258
308 344 314 288 318 47 70 139 21 170 175 182 193 200 209 225 234 227 238 241 243 253 250 248 248 244 252 239 237 243 247 250 252 261 258 252 259 265 263 266 263 260 258 255 252 251 260 267 262
200 197 282 272 243 78 354 54 16 189 182 185 199 207 212 234 232 227 233 239 238 247 239 234 264 240 243 248 245 252 257 263 274 276 274 263 259 260 262 264 266 262 259 264 257 254 253 261 261
205 327 289 296 20 90 329 57 64 32 174 199 201 217 221 233 245 231 228 234 242 265 232 230 250 265 243 255 249 255 266 272 269 272 279 277 275 267 267 264 264 264 262 262 259 257 260 265 253
237 205 246 244 70 62 132 12 338 312 216 210 211 229 231 241 244 236 236 244 235 247 253 248 250 263 254 276 264 257 269 298 346 281 289 289 282 276 270 263 260 261 261 259 263 264 259 261 258
307 186 230 205 102 188 31 253 260 245 293 212 199 217 232 245 235 241 238 235 232 238 245 259 273 270 267 290 271 275 302 262 295 302 305 295 285 278 270 264 260 260 260 257 259 258 258 258 258
248 47 354 95 107 110 7 66 266 26 264 247 198 219 208 222 230 251 264 253 233 236 235 248 277 263 263 266 249 264 290 310 309 303 296 292 285 274 268 260 257 255 259 257 254 253 253 251 261
215 102 36 46 74 37 335 138 283 194 202 197 190 198 205 196 199 213 198 182 205 233 240 238 247 282 276 236 237 279 310 308 314 332 337 335 319 295 279 260 255 251 255 260 256 247 252 248 253
88 64 344 342 19 221 115 58 241 226 216 183 181 187 179 189 176 156 113 97 109 213 229 232 241 251 262 230 239 278 295 335 347 352 0 359 357 342 321 288 263 246 246 250 239 245 251 253 251
160 154 153 204 189 253 108 240 259 236 167 186 241 181 175 180 162 120 116 110 119 131 141 162 188 176 137 22 288 287 262 339 335 344 6 15 15 7 5 349 292 249 250 258 258 258 257 257 258
179 175 168 103 25 56 281 292 300 236 259 247 213 191 186 176 154 146 153 133 129 126 122 128 144 150 149 97 56 286 300 333 346 348 352 4 10 14 18 20 339 267 254 249 255 252 269 266 264
191 152 68 15 123 227 298 287 246 236 202 174 186 183 183 172 162 166 161 142 130 125 125 125 127 121 114 121 110 197 326 353 352 350 347 346 346 347 352 358 3 304 259 255 242 232 245 264 262
149 95 56 111 103 157 219 266 218 217 200 175 179 186 182 179 171 171 162 144 131 124 119 121 131 126 131 140 39 8 345 356 6 7 5 4 359 347 336 335 341 344 279 235 225 235 255 281 270
210 177 131 123 218 173 160 270 169 263 198 177 152 182 188 183 158 152 136 129 151 152 150 148 148 145 115 79 25 20 31 36 30 20 12 2 360 357 356 349 334 351 321 273 240 282 265 265 281